Miscellaneous Local Product
Issued by NWS Hastings, NE

Home | Current Version | Previous Version | Graphics & Text | Print | Product List | Glossary On
Versions: 1 2 3 4 5 6 7 8 9 10 11 12 13 14 15 16 17 18 19 20 21 22 23 24 25 26 27 28 29 30 31 32 33 34 35 36 37 38 39 40 41 42 43 44 45 46 47 48 49 50
793
AXUS43 KGID 250002
MISGRI

GID CWA HOURLY WEATHER ROUNDUP
NATIONAL WEATHER SERVICE HASTINGS NE
700 PM CDT SAT JUN 24 2017

NOTE: "FAIR" INDICATES FEW OR NO CLOUDS BELOW 12,000 FEET WITH NO
SIGNIFICANT WEATHER AND/OR OBSTRUCTIONS TO VISIBILITY.

...SOUTH CENTRAL NEBRASKA...

CITY           SKY/WX    TMP DP  RH WIND       PRES   REMARKS
GRAND ISLAND   CLOUDY    74  39  28 NW9       30.20R
HASTINGS       CLOUDY    73  43  33 W10       30.21F
KEARNEY        CLOUDY    75  39  27 W13       30.21S
ORD            CLOUDY    70  35  27 W7        30.19S
YORK           CLOUDY    75  39  27 NW9       30.18S
AURORA         CLOUDY    73  41  32 NW6       30.19R
LEXINGTON      CLOUDY    74  44  33 NW6       30.22S
HOLDREGE       PTSUNNY   73  42  31 SW8       30.21F
HEBRON         CLOUDY    75  40  28 W7        30.19S

...NEBRASKA PANHANDLE...

CITY           SKY/WX    TMP DP  RH WIND       PRES   REMARKS
CHADRON        MOSUNNY   76  27  16 NW9       30.23S
ALLIANCE       PTSUNNY   73  37  27 NE13      30.26S
SCOTTSBLUFF    PTSUNNY   74  36  25 NE7       30.25F
SIDNEY         MOSUNNY   74  34  23 SE7       30.28S

...WESTERN AND NORTH CENTRAL NEBRASKA...

CITY           SKY/WX    TMP DP  RH WIND       PRES   REMARKS
VALENTINE      MOSUNNY   75  28  17 NW13      30.21S
AINSWORTH      SUNNY     74  35  24 N20       30.21F
ONEILL         SUNNY     74  38  27 NW17G28   30.18S
BROKEN BOW     MOSUNNY   72  36  26 N10       30.22F
IMPERIAL       MOSUNNY   73  42  32 E7        30.24F
NORTH PLATTE   SUNNY     77  38  24 W8        30.22F
MCCOOK         CLOUDY    69  55  60 E5        30.23S

...EASTERN NEBRASKA...

CITY           SKY/WX    TMP DP  RH WIND       PRES   REMARKS
NORFOLK        SUNNY     75  35  23 NW13G26   30.13F
SO SIOUX CITY  SUNNY     75  39  27 NW24      30.10R
TEKAMAH        SUNNY     78  36  21 NW21      30.11R
COLUMBUS       CLOUDY    75  39  27 NW12      30.16R
ALBION         CLOUDY    74  32  20 NW8G17    30.17S
OMAHA EPPLEY   PTSUNNY   77  38  24 NW14      30.10F
OFFUTT AFB     PTSUNNY   76  40  27 NW14      30.11S
MILLARD        CLOUDY    78  42  27 NW14      30.12S
LINCOLN        PTSUNNY   78  39  24 NW10      30.15R
NEBRASKA CITY  SUNNY     77  46  32 NW13G18   30.13F
BEATRICE       CLOUDY    75  43  32 W9        30.16S
FALLS CITY     MOSUNNY   76  46  34 W9        30.13S

...NORTHERN KANSAS...

CITY           SKY/WX    TMP DP  RH WIND       PRES   REMARKS
GOODLAND       PTSUNNY   72  50  45 SE8       30.22F
HILL CITY      CLOUDY    75  52  44 E7        30.21S
NORTON         MOCLDY    73  39  29 NE9       30.22R
PHILLIPSBURG   CLOUDY    75  43  31 N8        30.22R
SMITH CENTER     N/A     73  43  33 NW5       30.21F
HAYS           CLOUDY    76  53  44 NE9       30.19S
RUSSELL        CLOUDY    79  49  34 NE12      30.17S
CONCORDIA      CLOUDY    76  42  29 NW7       30.18F
SALINA         CLOUDY    82  45  27 N12       30.17S
TOPEKA         SUNNY     79  48  33 NW8       30.16F



USA.gov is the U.S. government's official web portal to all federal, state and local government web resources and services.